Torna al catalogo

STARLINK-1329

AttivoComunicazioniVLEO
NORAD 45531·PAYLOAD·🇺🇸 United States

Lanciato Apr 22, 2020 da Cape Canaveral Space Force Station

Loading…

Prossimi Passaggi (prossime 24 ore)

TLE

AggiornatoSource: CelesTrak SupGP

Epoca: Sep 14, 2026, 22:10 UTC

1 45531C 20025A   26257.92409722  .00217610  00000+0  58293-3 0  2577
2 45531  53.0319 218.9840 0004558  84.0553  39.8696 15.93597510    17

Traccia STARLINK-1329 in tempo reale con AllMySat

Download on the App Store